Date String (YYYY-MM-DD hh:mm:ss) UTC,Instrument flags,Ambient pressure (hPa),Sample flow (lpm),Bypass flow (lpm),Sample temperature (°C),Ambient temperature (°C),ASC tube jacket temperature (°C),LED temperature (°C),Box temperature (°C),Sample RH (%),Span deviation,Mass concentration (μg/m³),Mass concentration (μg/m³),Mass concentration (μg/m³)
DateTimeUTC,F1_M11,P_M11,Q1_M11,Q2_M11,T1_M11,T2_M11,T3_M11,T4_M11,T5_M11,U1_M11,ZSPAN_M11,X0_M11,X2_M11,X1_M11
2023-01-09 09:00:00,,0824.7,5.00,0.00,22.3,21.8,00.0,31.0,24.1,10.8,0000.0,0004.37,0000.85,0000.65
2023-01-09 09:01:00,,0824.8,5.00,0.00,22.3,21.5,00.0,31.0,24.1,10.9,0000.0,0004.33,0000.84,0000.65
2023-01-09 09:02:00,,0824.7,5.02,0.00,22.3,21.2,00.0,31.0,24.0,11.0,0000.0,0004.31,0000.83,0000.65
2023-01-09 09:03:00,,0824.6,4.99,0.00,22.3,21.1,00.0,31.0,23.9,11.0,0000.0,0004.25,0000.79,0000.65
2023-01-09 09:04:00,,0824.6,5.00,0.00,22.2,20.9,00.0,31.0,23.8,11.1,0000.0,0002.83,0000.80,0000.65
2023-01-09 09:05:00,,0824.6,4.99,0.00,22.2,20.8,00.0,31.0,23.8,11.4,0000.0,0002.61,0000.83,0000.65
2023-01-09 09:06:00,,0824.4,4.99,0.00,22.2,20.7,00.0,31.0,23.8,11.4,0000.0,0002.01,0000.82,0000.65
2023-01-09 09:07:00,,0824.4,5.01,0.00,22.1,20.6,00.0,31.0,23.7,11.6,0000.0,0001.18,0000.82,0000.65
2023-01-09 09:08:00,,0824.4,5.01,0.00,22.1,20.5,00.0,31.0,23.6,11.2,0000.0,0001.15,0000.81,0000.65
2023-01-09 09:09:00,,0824.7,5.00,0.00,22.0,20.4,00.0,31.0,23.6,11.5,0000.0,0001.20,0000.82,0000.65
2023-01-09 09:10:00,,0824.7,5.00,0.00,22.0,20.3,00.0,31.0,23.5,11.5,0000.0,0001.27,0000.85,0000.65
2023-01-09 09:11:00,,0824.6,5.00,0.00,22.0,20.9,00.0,30.9,23.7,11.6,0000.0,0001.34,0000.87,0000.65
2023-01-09 09:12:00,,0824.7,5.00,0.00,22.1,22.0,00.0,30.9,24.0,11.4,0000.0,0001.32,0000.86,0000.65
2023-01-09 09:13:00,,0824.8,4.99,0.00,22.3,22.9,00.0,31.0,24.3,11.0,0000.0,0001.32,0000.86,0000.65
2023-01-09 09:14:00,,0824.9,4.99,0.00,22.4,22.7,00.0,31.0,24.4,11.5,0000.0,0001.30,0000.86,0000.66
2023-01-09 09:15:00,,0824.8,5.00,0.00,22.4,22.1,00.0,31.1,24.3,11.5,0000.0,0001.31,0000.87,0000.66
2023-01-09 09:16:00,,0824.7,4.99,0.00,22.4,21.8,00.0,31.1,24.2,11.2,0000.0,0001.31,0000.86,0000.66
2023-01-09 09:17:00,,0824.8,5.00,0.00,22.3,21.5,00.0,31.1,24.1,11.1,0000.0,0001.28,0000.85,0000.66
2023-01-09 09:18:00,,0824.7,5.01,0.00,22.3,21.3,00.0,31.1,24.0,11.5,0000.0,0001.23,0000.84,0000.66
2023-01-09 09:19:00,,0824.7,5.01,0.00,22.3,21.1,00.0,31.1,24.0,11.5,0000.0,0001.20,0000.83,0000.66
2023-01-09 09:20:00,,0824.7,5.02,0.00,22.3,20.9,00.0,31.1,23.9,11.3,0000.0,0001.17,0000.82,0000.66
2023-01-09 09:21:00,,0824.8,5.01,0.00,22.2,20.7,00.0,31.1,23.8,11.4,0000.0,0001.13,0000.82,0000.67
2023-01-09 09:22:00,,0824.9,5.00,0.00,22.2,20.6,00.0,31.1,23.8,11.4,0000.0,0001.08,0000.80,0000.67
2023-01-09 09:23:00,,0824.8,5.01,0.00,22.2,20.6,00.0,31.1,23.7,11.6,0000.0,0001.14,0000.82,0000.67
2023-01-09 09:24:00,,0824.7,5.01,0.00,22.1,20.6,00.0,31.1,23.7,11.5,0000.0,0001.18,0000.84,0000.68
2023-01-09 09:25:00,,0824.8,5.01,0.00,22.1,20.5,00.0,31.0,23.7,11.6,0000.0,0001.21,0000.83,0000.67
2023-01-09 09:26:00,,0824.8,5.00,0.00,22.1,20.4,00.0,31.0,23.6,11.3,0000.0,0001.23,0000.84,0000.68
2023-01-09 09:27:00,,0824.8,5.00,0.00,22.0,20.4,00.0,31.0,23.6,11.4,0000.0,0001.22,0000.84,0000.68
2023-01-09 09:28:00,,0824.7,4.99,0.00,22.0,20.3,00.0,31.0,23.5,11.6,0000.0,0001.19,0000.83,0000.68
2023-01-09 09:29:00,,0824.7,4.99,0.00,22.0,20.7,00.0,30.9,23.7,11.7,0000.0,0001.31,0000.85,0000.69
2023-01-09 09:30:00,,0824.7,5.00,0.00,22.1,21.8,00.0,30.9,24.0,11.9,0000.0,0001.35,0000.85,0000.69
2023-01-09 09:31:00,,0824.6,5.00,0.00,22.2,22.8,00.0,30.9,24.2,11.8,0000.0,0001.42,0000.88,0000.71
2023-01-09 09:32:00,,0824.5,5.00,0.00,22.3,22.7,00.0,31.0,24.3,11.7,0000.0,0001.46,0000.89,0000.71
2023-01-09 09:33:00,,0824.6,5.00,0.00,22.3,22.2,00.0,31.1,24.2,11.6,0000.0,0001.43,0000.88,0000.71
2023-01-09 09:34:00,,0824.7,5.00,0.00,22.3,21.8,00.0,31.1,24.1,11.5,0000.0,0001.44,0000.90,0000.71
2023-01-09 09:35:00,,0824.9,5.01,0.00,22.3,21.4,00.0,31.1,24.0,11.7,0000.0,0001.43,0000.89,0000.71
2023-01-09 09:36:00,,0824.9,5.00,0.00,22.3,21.1,00.0,31.1,23.9,11.8,0000.0,0001.40,0000.88,0000.71
2023-01-09 09:37:00,,0825.0,5.00,0.00,22.2,20.9,00.0,31.1,23.8,11.3,0000.0,0001.41,0000.88,0000.71
2023-01-09 09:38:00,,0825.0,5.00,0.00,22.2,20.7,00.0,31.1,23.8,11.6,0000.0,0001.38,0000.88,0000.70
2023-01-09 09:39:00,,0825.1,5.00,0.00,22.1,20.6,00.0,31.1,23.7,11.8,0000.0,0001.40,0000.89,0000.70
2023-01-09 09:40:00,,0825.0,5.00,0.00,22.1,20.6,00.0,31.0,23.7,11.6,0000.0,0001.33,0000.87,0000.70
2023-01-09 09:41:00,,0825.0,5.00,0.00,22.1,20.6,00.0,31.0,23.7,11.3,0000.0,0001.25,0000.87,0000.70
2023-01-09 09:42:00,,0825.0,5.00,0.00,22.1,20.5,00.0,31.0,23.7,11.6,0000.0,0001.23,0000.86,0000.69
2023-01-09 09:43:00,,0825.0,5.00,0.00,22.0,20.5,00.0,31.0,23.6,11.3,0000.0,0001.19,0000.84,0000.68
2023-01-09 09:44:00,,0825.0,5.00,0.00,22.0,20.4,00.0,31.0,23.6,11.1,0000.0,0001.14,0000.82,0000.68
2023-01-09 09:45:00,,0824.9,5.00,0.00,22.0,20.3,00.0,31.0,23.6,11.4,0000.0,0001.08,0000.80,0000.68
2023-01-09 09:46:00,,0824.9,5.02,0.00,22.0,20.3,00.0,31.0,23.5,11.4,0000.0,0001.13,0000.81,0000.69
2023-01-09 09:47:00,,0824.9,5.02,0.00,21.9,20.6,00.0,30.9,23.6,11.5,0000.0,0001.13,0000.82,0000.69
2023-01-09 09:48:00,,0824.9,5.00,0.00,22.0,21.8,00.0,30.9,23.9,11.6,0000.0,0001.14,0000.84,0000.70
2023-01-09 09:49:00,,0824.9,5.00,0.00,22.2,22.8,00.0,30.9,24.2,11.5,0000.0,0001.17,0000.85,0000.71
2023-01-09 09:50:00,,0825.0,4.99,0.00,22.3,22.8,00.0,31.0,24.3,11.5,0000.0,0001.16,0000.83,0000.72
2023-01-09 09:51:00,,0824.9,4.99,0.00,22.3,22.2,00.0,31.0,24.2,11.7,0000.0,0001.22,0000.86,0000.73
2023-01-09 09:52:00,,0824.9,5.01,0.00,22.3,21.7,00.0,31.1,24.1,11.5,0000.0,0002.13,0000.91,0000.74
2023-01-09 09:53:00,,0824.9,5.00,0.00,22.2,21.3,00.0,31.1,23.9,11.3,0000.0,0002.73,0000.93,0000.74
2023-01-09 09:54:00,,0825.0,5.01,0.00,22.2,21.0,00.0,31.1,23.8,11.5,0000.0,0002.78,0000.95,0000.74
2023-01-09 09:55:00,,0824.9,5.00,0.00,22.2,20.8,00.0,31.1,23.8,11.8,0000.0,0002.89,0000.97,0000.75
2023-01-09 09:56:00,,0825.1,5.00,0.00,22.1,20.7,00.0,31.0,23.7,11.7,0000.0,0002.99,0000.99,0000.75
2023-01-09 09:57:00,,0825.0,5.00,0.00,22.1,20.4,00.0,31.0,23.6,11.4,0000.0,0003.18,0000.97,0000.74
2023-01-09 09:58:00,,0824.8,4.99,0.00,22.0,20.3,00.0,31.0,23.6,11.4,0000.0,0003.95,0000.96,0000.74
2023-01-09 09:59:00,,0824.9,4.99,0.00,22.0,20.3,00.0,31.0,23.5,11.4,0000.0,0003.99,0000.97,0000.74
